GW5469 Weather Reports


time (UTC)temp
C
wind
direction
speed
KPH
gust
KPH
rain 1hr
cm
rain 24hr
cm
rain mn
cm
humidity
%
barometer
mb
20260503013752 18 304 0.0 0.0 0.00 0.00 0.00 34 1013.6
20260503013249 18 279 0.0 0.0 0.00 0.00 0.00 32 1013.6
20260503012746 18 215 0.0 0.0 0.00 0.00 0.00 30 1013.5
20260503012244 18 215 0.0 0.0 0.00 0.00 0.00 31 1013.5
20260503011740 18 215 0.0 0.0 0.00 0.00 0.00 31 1013.6
20260503011237 18 215 0.0 0.0 0.00 0.00 0.00 33 1013.6
20260503010733 18 205 1.6 1.6 0.00 0.00 0.00 31 1013.8
20260503010230 18 194 3.2 3.2 0.00 0.00 0.00 32 1013.7
20260503005728 18 184 3.2 3.2 0.00 0.00 0.00 31 1013.7
20260503005225 18 193 3.2 3.2 0.00 0.00 0.00 32 1013.8
20260503004721 19 184 6.4 6.4 0.00 0.00 0.00 33 1013.8
20260503004220 20 128 6.4 9.7 0.00 0.00 0.00 30 1013.8
20260503003717 20 271 3.2 3.2 0.00 0.00 0.00 28 1014.0
20260503003214 20 238 1.6 1.6 0.00 0.00 0.00 29 1014.0
20260503002710 20 190 6.4 9.7 0.00 0.00 0.00 30 1013.7
20260503002207 20 172 6.4 9.7 0.00 0.00 0.00 31 1013.7
20260503001703 20 214 3.2 4.8 0.00 0.00 0.00 30 1014.2
20260503001200 20 175 4.8 6.4 0.00 0.00 0.00 30 1014.3
20260503000658 20 96 3.2 4.8 0.00 0.00 0.00 31 1014.1
20260503000155 20 74 1.6 3.2 0.00 0.00 0.00 32 1014.1
20260502235651 20 197 3.2 4.8 0.00 0.00 0.00 30 1014.3
20260502235149 20 5 1.6 1.6 0.00 0.00 0.00 30 1014.3
20260502234645 19 337 6.4 6.4 0.00 0.00 0.00 30 1014.4
20260502234143 19 73 0.0 0.0 0.00 0.00 0.00 30 1014.3
20260502233638 19 140 9.7 12.9 0.00 0.00 0.00 32 1014.5
20260502233135 19 141 6.4 6.4 0.00 0.00 0.00 32 1014.4
20260502232631 19 93 6.4 9.7 0.00 0.00 0.00 31 1014.6
20260502232129 18 16 3.2 4.8 0.00 0.00 0.00 32 1014.7
20260502231625 18 345 0.0 1.6 0.00 0.00 0.00 34 1014.8
20260502231123 19 14 3.2 4.8 0.00 0.00 0.00 31 1014.7
20260502230621 19 99 12.9 14.5 0.00 0.00 0.00 32 1015.1
20260502230120 20 283 0.0 0.0 0.00 0.00 0.00 31 1015.1
20260502225615 20 340 8.0 9.7 0.00 0.00 0.00 30 1014.8
20260502225112 20 301 0.0 1.6 0.00 0.00 0.00 29 1015.1
20260502224608 20 321 4.8 6.4 0.00 0.00 0.00 30 1015.1
20260502224105 18 332 3.2 4.8 0.00 0.00 0.00 31 1015.1
20260502223603 18 85 3.2 4.8 0.00 0.00 0.00 32 1015.2
20260502223102 20 55 8.0 11.3 0.00 0.00 0.00 31 1015.3
20260502222558 18 63 1.6 1.6 0.00 0.00 0.00 33 1015.2
20260502222054 19 330 3.2 4.8 0.00 0.00 0.00 32 1015.2
20260502221550 18 59 6.4 9.7 0.00 0.00 0.00 32 1015.4
20260502221048 18 75 11.3 12.9 0.00 0.00 0.00 34 1015.6
20260502220543 18 54 3.2 3.2 0.00 0.00 0.00 35 1015.6
20260502220040 18 320 0.0 0.0 0.00 0.00 0.00 36 1015.8
20260502215537 18 358 3.2 3.2 0.00 0.00 0.00 33 1015.9
20260502215034 18 52 1.6 3.2 0.00 0.00 0.00 35 1015.8
20260502214531 18 17 8.0 9.7 0.00 0.00 0.00 34 1015.8
20260502214029 19 46 8.0 12.9 0.00 0.00 0.00 34 1015.9
20260502213525 19 2 6.4 9.7 0.00 0.00 0.00 32 1015.8
20260502213023 19 276 0.0 0.0 0.00 0.00 0.00 32 1016.3
20260502212522 20 237 4.8 4.8 0.00 0.00 0.00 30 1015.9
20260502212019 19 314 1.6 3.2 0.00 0.00 0.00 31 1015.8
20260502211515 19 336 3.2 4.8 0.00 0.00 0.00 31 1015.9
20260502211012 19 308 8.0 9.7 0.00 0.00 0.00 32 1016.1
20260502210509 20 325 6.4 6.4 0.00 0.00 0.00 30 1016.3
20260502210006 19 282 0.0 0.0 0.00 0.00 0.00 33 1016.0
20260502205502 19 313 6.4 9.7 0.00 0.00 0.00 32 1016.3
20260502204959 18 245 0.0 1.6 0.00 0.00 0.00 33 1016.1
20260502204456 20 207 6.4 9.7 0.00 0.00 0.00 34 1016.3
20260502203954 20 235 1.6 3.2 0.00 0.00 0.00 33 1016.3
20260502203451 19 249 6.4 6.4 0.00 0.00 0.00 33 1016.3
20260502202947 20 282 1.6 3.2 0.00 0.00 0.00 31 1016.6
20260502202444 19 281 1.6 3.2 0.00 0.00 0.00 31 1016.7
20260502201942 18 36 1.6 1.6 0.00 0.00 0.00 34 1016.8
20260502201438 17 82 9.7 11.3 0.00 0.00 0.00 35 1016.8
20260502200935 18 36 6.4 9.7 0.00 0.00 0.00 35 1016.9
20260502200430 18 62 11.3 14.5 0.00 0.00 0.00 34 1016.8
20260502195928 18 327 4.8 6.4 0.00 0.00 0.00 35 1016.7
20260502195425 18 112 12.9 12.9 0.00 0.00 0.00 35 1016.8
20260502194922 19 234 1.6 3.2 0.00 0.00 0.00 33 1017.1
20260502194419 19 334 3.2 3.2 0.00 0.00 0.00 32 1017.1
20260502193915 18 180 3.2 3.2 0.00 0.00 0.00 33 1016.8
20260502193412 18 96 3.2 4.8 0.00 0.00 0.00 34 1017.0
20260502192907 18 1 3.2 3.2 0.00 0.00 0.00 35 1017.1
20260502192404 18 10 8.0 9.7 0.00 0.00 0.00 34 1017.2
20260502191902 18 37 1.6 3.2 0.00 0.00 0.00 37 1017.5
20260502191359 18 56 6.4 9.7 0.00 0.00 0.00 35 1017.5
20260502190857 18 203 1.6 3.2 0.00 0.00 0.00 35 1017.4
20260502190354 18 88 9.7 12.9 0.00 0.00 0.00 36 1017.5
20260502185850 18 352 6.4 6.4 0.00 0.00 0.00 35 1017.5
20260502185345 18 297 0.0 0.0 0.00 0.00 0.00 34 1017.5
20260502184843 18 40 4.8 6.4 0.00 0.00 0.00 36 1017.7
20260502184338 17 19 8.0 9.7 0.00 0.00 0.00 37 1017.8
20260502183835 17 44 6.4 9.7 0.00 0.00 0.00 36 1017.9
20260502183331 17 66 4.8 4.8 0.00 0.00 0.00 37 1017.7
20260502182826 17 30 4.8 6.4 0.00 0.00 0.00 36 1017.8
20260502182322 17 17 6.4 6.4 0.00 0.00 0.00 36 1018.0
20260502181819 18 32 9.7 11.3 0.00 0.00 0.00 35 1017.6
20260502181317 18 333 4.8 4.8 0.00 0.00 0.00 34 1017.9
20260502180815 18 67 6.4 9.7 0.00 0.00 0.00 36 1018.0
20260502180312 18 95 6.4 6.4 0.00 0.00 0.00 33 1018.0
20260502170231 17 66 8.0 11.3 0.00 0.00 0.00 38 1018.6
20260502164219 17 8 3.2 4.8 0.00 0.00 0.00 37 1018.3
20260502163714 17 11 4.8 6.4 0.00 0.00 0.00 37 1018.4
20260502163211 17 63 4.8 4.8 0.00 0.00 0.00 38 1018.4
20260502162708 16 307 0.0 1.6 0.00 0.00 0.00 36 1018.3
20260502162204 16 339 4.8 4.8 0.00 0.00 0.00 38 1018.4
20260502161701 16 349 0.0 0.0 0.00 0.00 0.00 38 1018.6
20260502161158 16 38 4.8 6.4 0.00 0.00 0.00 41 1018.6
20260502160656 16 25 3.2 6.4 0.00 0.00 0.00 39 1018.3
20260502160155 16 7 6.4 6.4 0.00 0.00 0.00 39 1018.7
20260502152103 15 54 4.8 6.4 0.00 0.00 0.00 42 1018.4
20260502151600 15 67 8.0 11.3 0.00 0.00 0.00 41 1018.3
20260502151057 15 15 9.7 12.9 0.00 0.00 0.00 41 1018.4
20260502150554 14 36 6.4 9.7 0.00 0.00 0.00 45 1018.3
20260502130439 10 4 8.0 9.7 0.00 0.00 0.00 51 1017.6
20260502123422 9 335 8.0 9.7 0.00 0.00 0.00 51 1017.5
20260502122919 9 351 9.7 11.3 0.00 0.00 0.00 51 1017.5
20260502122415 9 2 6.4 9.7 0.00 0.00 0.00 51 1017.0
20260502121914 8 340 9.7 14.5 0.00 0.00 0.00 51 1017.0
20260502121410 8 351 9.7 12.9 0.00 0.00 0.00 52 1016.7
20260502120908 7 341 9.7 11.3 0.00 0.00 0.00 54 1016.7
20260502120404 8 335 14.5 17.7 0.00 0.00 0.00 54 1016.4
20260502115901 8 341 14.5 14.5 0.00 0.00 0.00 52 1016.3
20260502115358 8 355 14.5 16.1 0.00 0.00 0.00 52 1016.3
20260502114854 8 343 6.4 6.4 0.00 0.00 0.00 52 1016.1
20260502114352 7 335 6.4 6.4 0.00 0.00 0.00 56 1016.1
20260502113848 6 248 0.0 0.0 0.00 0.00 0.00 59 1016.1
20260502113346 7 239 3.2 3.2 0.00 0.00 0.00 60 1016.4
20260502112844 7 291 0.0 0.0 0.00 0.00 0.00 57 1016.0
20260502112341 7 300 3.2 3.2 0.00 0.00 0.00 57 1016.0
20260502111839 7 317 6.4 9.7 0.00 0.00 0.00 58 1016.0
20260502111336 7 297 4.8 6.4 0.00 0.00 0.00 58 1015.9
20260502110834 6 288 3.2 3.2 0.00 0.00 0.00 62 1016.1
20260502110332 6 261 0.0 1.6 0.00 0.00 0.00 60 1015.9
20260502105829 5 259 4.8 6.4 0.00 0.00 0.00 59 1015.9
20260502105326 5 236 3.2 3.2 0.00 0.00 0.00 59 1015.9
20260502104823 5 225 1.6 1.6 0.00 0.00 0.00 58 1015.9
20260502104320 6 229 1.6 1.6 0.00 0.00 0.00 58 1015.8
20260502103818 8 275 1.6 3.2 0.00 0.00 0.00 51 1015.8
20260502103315 7 276 3.2 4.8 0.00 0.00 0.00 54 1015.7
20260502102812 6 246 1.6 1.6 0.00 0.00 0.00 55 1015.7
20260502102308 6 237 0.0 0.0 0.00 0.00 0.00 57 1015.7
20260502101806 7 226 3.2 3.2 0.00 0.00 0.00 54 1015.6
20260502101304 6 235 4.8 4.8 0.00 0.00 0.00 54 1015.5
20260502100802 6 226 4.8 4.8 0.00 0.00 0.00 56 1015.3
20260502100301 5 207 6.4 6.4 0.00 0.00 0.00 58 1015.1
20260502091235 5 212 8.0 9.7 0.00 0.00 0.00 55 1014.5
20260502090732 5 205 9.7 12.9 0.00 0.00 0.00 55 1014.6
20260502090228 5 214 9.7 11.3 0.00 0.00 0.00 54 1014.6
20260502071129 6 222 3.2 3.2 0.00 0.00 0.00 47 1014.4
20260502070627 6 243 3.2 4.8 0.00 0.00 0.00 46 1014.4
20260502070125 6 236 3.2 3.2 0.00 0.00 0.00 46 1014.3
20260502065623 6 227 4.8 4.8 0.00 0.00 0.00 46 1014.5
20260502065120 6 229 3.2 3.2 0.00 0.00 0.00 46 1014.3
20260502064619 5 222 3.2 3.2 0.00 0.00 0.00 47 1014.2
20260502064116 7 219 1.6 3.2 0.00 0.00 0.00 47 1014.3
20260502063614 7 225 6.4 6.4 0.00 0.00 0.00 40 1014.2
20260502063111 5 348 19.3 22.5 0.00 0.00 0.00 47 1014.3
20260502062608 5 257 0.0 0.0 0.00 0.00 0.00 50 1014.1
20260502062106 5 232 3.2 3.2 0.00 0.00 0.00 49 1014.1
20260502061604 6 232 4.8 6.4 0.00 0.00 0.00 47 1014.0
20260502061102 6 252 1.6 1.6 0.00 0.00 0.00 46 1014.0
20260502060601 7 267 1.6 3.2 0.00 0.00 0.00 45 1014.0
20260502060059 6 235 4.8 4.8 0.00 0.00 0.00 44 1014.3
20260502055556 6 263 3.2 4.8 0.00 0.00 0.00 45 1014.1
20260502055054 7 239 6.4 6.4 0.00 0.00 0.00 43 1014.0
20260502054553 6 237 4.8 4.8 0.00 0.00 0.00 45 1014.0
20260502054049 6 237 3.2 3.2 0.00 0.00 0.00 45 1014.0
20260502053547 6 242 4.8 4.8 0.00 0.00 0.00 46 1014.1
20260502053044 6 261 3.2 3.2 0.00 0.00 0.00 44 1014.1
20260502052543 7 264 3.2 3.2 0.00 0.00 0.00 43 1013.8
20260502052040 7 265 1.6 3.2 0.00 0.00 0.00 42 1014.0
20260502051538 7 247 3.2 4.8 0.00 0.00 0.00 42 1013.7
20260502051036 7 240 4.8 4.8 0.00 0.00 0.00 41 1014.0
20260502050531 8 235 6.4 6.4 0.00 0.00 0.00 41 1013.7
20260502050029 7 214 6.4 9.7 0.00 0.00 0.00 41 1013.7
20260502045525 6 214 6.4 6.4 0.00 0.00 0.00 42 1013.4
20260502045023 6 210 4.8 6.4 0.00 0.00 0.00 47 1013.6
20260502044519 6 205 6.4 9.7 0.00 0.00 0.00 45 1013.8
20260502044016 6 209 6.4 6.4 0.00 0.00 0.00 46 1013.6
20260502043513 6 213 4.8 6.4 0.00 0.00 0.00 46 1013.6
20260502043009 6 217 3.2 4.8 0.00 0.00 0.00 45 1013.7
20260502042504 7 222 4.8 4.8 0.00 0.00 0.00 43 1013.7
20260502042002 9 218 6.4 6.4 0.00 0.00 0.00 40 1013.6
20260502041500 11 226 4.8 4.8 0.00 0.00 0.00 35 1013.6
20260502040956 12 258 1.6 3.2 0.00 0.00 0.00 32 1013.6
20260502040453 12 272 3.2 4.8 0.00 0.00 0.00 31 1013.3
20260502035949 13 290 8.0 9.7 0.00 0.00 0.00 30 1013.5
20260502035445 13 284 6.4 6.4 0.00 0.00 0.00 30 1013.3
20260502034944 13 289 8.0 9.7 0.00 0.00 0.00 29 1013.3
20260502034442 13 287 8.0 9.7 0.00 0.00 0.00 30 1013.4
20260502033940 13 287 3.2 4.8 0.00 0.00 0.00 29 1013.5
20260502033437 13 261 3.2 4.8 0.00 0.00 0.00 29 1013.3
20260502032934 13 272 3.2 4.8 0.00 0.00 0.00 29 1013.4
20260502032430 13 272 3.2 4.8 0.00 0.00 0.00 28 1013.3
20260502031927 13 286 3.2 4.8 0.00 0.00 0.00 29 1013.3
20260502031426 13 285 6.4 9.7 0.00 0.00 0.00 28 1013.2
20260502030924 13 284 4.8 4.8 0.00 0.00 0.00 28 1013.1
20260502030422 13 286 4.8 4.8 0.00 0.00 0.00 28 1013.0
20260502025920 13 280 1.6 3.2 0.00 0.00 0.00 29 1012.9
20260502025416 13 279 1.6 1.6 0.00 0.00 0.00 28 1012.6
20260502024914 12 258 0.0 0.0 0.00 0.00 0.00 29 1012.8
20260502024412 13 251 1.6 3.2 0.00 0.00 0.00 29 1012.8
20260502023910 14 269 1.6 1.6 0.00 0.00 0.00 27 1012.6
20260502023407 15 273 1.6 3.2 0.00 0.00 0.00 27 1012.6
20260502022905 16 281 0.0 0.0 0.00 0.00 0.00 26 1012.5
20260502022400 17 283 1.6 1.6 0.00 0.00 0.00 24 1012.6
20260502021857 17 280 1.6 1.6 0.00 0.00 0.00 24 1012.5
20260502021355 17 260 3.2 3.2 0.00 0.00 0.00 23 1012.6
20260502020852 18 270 1.6 3.2 0.00 0.00 0.00 24 1012.5
20260502020350 20 274 4.8 4.8 0.00 0.00 0.00 21 1012.5
20260502015847 21 269 6.4 6.4 0.00 0.00 0.00 19 1012.6
20260502015344 21 279 4.8 4.8 0.00 0.00 0.00 20 1012.4
20260502014841 21 273 1.6 3.2 0.00 0.00 0.00 20 1012.4
20260502014338 21 290 3.2 4.8 0.00 0.00 0.00 19 1012.4